Dallas Love, TX

7:16 PM CDT on June 18, 2018 (GMT -0500)
Dallas Love

Weather History for KDAL - June, 2018

Change the Weather History Date:

Wednesday, June 13, 2018

  Actual Average Record
Temperature  
Mean Temperature 89 °F -  
Max Temperature 99 °F 88 °F 100 °F (1998)
Min Temperature 80 °F 69 °F 68 °F (2003)
Cooling Degree Days 24    
Growing Degree Days 39 (Base 50)    
Moisture  
Dew Point 68 °F    
Average Humidity 52    
Maximum Humidity 76    
Minimum Humidity 32    
Precipitation  
Precipitation 0.00 in - - ()
Sea Level Pressure  
Sea Level Pressure 29.95 in    
Wind  
Wind Speed 11 mph (South)    
Max Wind Speed 16 mph    
Max Gust Speed 23 mph    
Visibility 10 miles    
Events      
Averages and records for this station are not official NWS values.
T = Trace of Precipitation, MM = Missing Value Source: NWS Daily Summary

Daily Weather History Graph

Daily Weather History Graph

Search for Another Location

Airport or City:

Astronomy

Jun. 13, 2018 Rise Set
Actual Time 6:18 AM CDT 8:36 PM CDT
Civil Twilight 5:50 AM CDT 9:05 PM CDT
Nautical Twilight 5:15 AM CDT 9:40 PM CDT
Astronomical Twilight 4:36 AM CDT 10:18 PM CDT
Moon 6:17 AM CDT (6/13) 8:36 PM CDT (6/13)
Length of Visible Light 15h 15m
Length of Day
14h 17m
Waning Crescent, 0% of the Moon is Illuminated
Jun 13
Waning Crescent
Jun 13
New
Jun 20
First Quarter
Jun 27
Full
Jul 6
Last Quarter

Hourly Weather History & Observations

Time (CDT) Temp. Heat Index Dew Point Humidity Pressure Visibility Wind Dir Wind Speed Gust Speed Precip Events Conditions
12:53 AM 87.1 °F 90.6 °F 68.0 °F 53% 29.91 in 10.0 mi South 11.5 mph - N/A   Mostly Cloudy
1:53 AM 84.9 °F 88.2 °F 68.0 °F 57% 29.91 in 10.0 mi South 12.7 mph - N/A   Scattered Clouds
2:53 AM 84.0 °F 87.0 °F 68.0 °F 58% 29.91 in 10.0 mi South 13.8 mph - N/A   Mostly Cloudy
3:53 AM 82.9 °F 86.5 °F 69.1 °F 63% 29.92 in 10.0 mi South 6.9 mph 17.3 mph N/A   Mostly Cloudy
4:53 AM 82.0 °F 85.5 °F 69.1 °F 65% 29.95 in 10.0 mi South 8.1 mph - N/A   Scattered Clouds
5:53 AM 81.0 °F 84.1 °F 69.1 °F 67% 29.97 in 10.0 mi SSW 6.9 mph - N/A   Scattered Clouds
6:53 AM 80.1 °F 83.2 °F 70.0 °F 71% 29.99 in 10.0 mi SSW 9.2 mph - N/A   Mostly Cloudy
7:53 AM 80.1 °F 83.8 °F 72.0 °F 76% 30.00 in 10.0 mi SSW 10.4 mph - N/A   Mostly Cloudy
8:53 AM 81.0 °F 85.2 °F 72.0 °F 74% 30.02 in 10.0 mi SW 12.7 mph - N/A   Mostly Cloudy
9:53 AM 84.9 °F 91.4 °F 73.0 °F 67% 30.02 in 10.0 mi SSW 12.7 mph - N/A   Mostly Cloudy
10:53 AM 87.1 °F 92.8 °F 71.1 °F 59% 30.02 in 10.0 mi SSW 12.7 mph 23.0 mph N/A   Mostly Cloudy
11:53 AM 90.0 °F 96.4 °F 71.1 °F 54% 30.03 in 10.0 mi SSW 12.7 mph 18.4 mph N/A   Mostly Cloudy
12:53 PM 91.9 °F 97.4 °F 70.0 °F 48% 30.00 in 10.0 mi SW 11.5 mph 19.6 mph N/A   Mostly Cloudy
1:53 PM 93.9 °F 98.6 °F 68.0 °F 43% 29.98 in 10.0 mi SW 11.5 mph 17.3 mph N/A   Mostly Cloudy
2:53 PM 95.0 °F 101.3 °F 70.0 °F 44% 29.96 in 10.0 mi Variable 5.8 mph - N/A   Mostly Cloudy
3:53 PM 98.1 °F 101.8 °F 66.0 °F 35% 29.94 in 10.0 mi WSW 10.4 mph - N/A   Mostly Cloudy
4:53 PM 98.1 °F 100.7 °F 64.0 °F 33% 29.91 in 10.0 mi Variable 3.5 mph - N/A   Scattered Clouds
5:53 PM 98.1 °F 101.2 °F 64.9 °F 34% 29.89 in 10.0 mi South 9.2 mph - N/A   Scattered Clouds
6:53 PM 97.0 °F 99.3 °F 64.0 °F 34% 29.88 in 10.0 mi South 11.5 mph - N/A   Partly Cloudy
7:53 PM 96.1 °F 96.9 °F 62.1 °F 32% 29.89 in 10.0 mi South 13.8 mph - N/A   Partly Cloudy
8:53 PM 93.0 °F 95.0 °F 64.9 °F 39% 29.90 in 10.0 mi SE 11.5 mph - N/A   Partly Cloudy
9:53 PM 90.0 °F 92.8 °F 66.9 °F 46% 29.93 in 10.0 mi SE 12.7 mph - N/A   Partly Cloudy
10:53 PM 90.0 °F 91.7 °F 64.9 °F 43% 29.95 in 10.0 mi SE 16.1 mph - N/A   Partly Cloudy
11:53 PM 88.0 °F 90.3 °F 66.0 °F 48% 29.95 in 10.0 mi SSE 11.5 mph - N/A   Partly Cloudy